TimeEST,TemperatureF,Dew PointF,Humidity,Sea Level PressureIn,VisibilityMPH,Wind Direction,Wind SpeedMPH,Gust SpeedMPH,PrecipitationIn,Events,Conditions,WindDirDegrees,DateUTC
12:53 AM,34.0,21.9,61,30.29,10.0,SW,13.8,-,N/A,,Overcast,220,2013-12-27 05:53:00
1:53 AM,34.0,23.0,64,30.28,10.0,SW,10.4,20.7,N/A,,Overcast,220,2013-12-27 06:53:00
2:53 AM,34.0,21.9,61,30.29,10.0,WSW,16.1,20.7,N/A,,Overcast,240,2013-12-27 07:53:00
3:53 AM,34.0,21.9,61,30.30,10.0,SW,11.5,-,N/A,,Overcast,230,2013-12-27 08:53:00
4:53 AM,32.0,21.9,66,30.29,10.0,SW,10.4,-,N/A,,Clear,230,2013-12-27 09:53:00
5:53 AM,32.0,21.9,66,30.30,10.0,SW,6.9,-,N/A,,Overcast,230,2013-12-27 10:53:00
6:53 AM,30.9,23.0,72,30.30,10.0,North,-9999.0,-,N/A,,Mostly Cloudy,0,2013-12-27 11:53:00
7:53 AM,30.0,23.0,75,30.32,10.0,SW,6.9,-,N/A,,Clear,220,2013-12-27 12:53:00
8:53 AM,30.0,23.0,75,30.35,10.0,SW,8.1,-,N/A,,Clear,230,2013-12-27 13:53:00
9:53 AM,33.1,24.1,70,30.38,10.0,SW,6.9,-,N/A,,Clear,230,2013-12-27 14:53:00
10:53 AM,36.0,26.1,67,30.37,10.0,SW,9.2,-,N/A,,Clear,220,2013-12-27 15:53:00
11:53 AM,37.9,27.0,65,30.35,10.0,SW,9.2,-,N/A,,Clear,230,2013-12-27 16:53:00
12:53 PM,41.0,28.0,60,30.33,10.0,SSW,9.2,-,N/A,,Clear,210,2013-12-27 17:53:00
1:53 PM,43.0,28.9,58,30.30,10.0,SW,10.4,-,N/A,,Clear,220,2013-12-27 18:53:00
2:53 PM,43.0,30.0,60,30.28,10.0,SSW,13.8,18.4,N/A,,Clear,210,2013-12-27 19:53:00
3:53 PM,43.0,28.9,58,30.27,10.0,SW,10.4,-,N/A,,Clear,230,2013-12-27 20:53:00
4:53 PM,42.1,28.9,60,30.27,10.0,SW,9.2,-,N/A,,Clear,220,2013-12-27 21:53:00
5:53 PM,37.9,28.9,70,30.28,10.0,South,6.9,-,N/A,,Clear,190,2013-12-27 22:53:00
6:53 PM,37.0,28.9,73,30.27,10.0,SSW,9.2,-,N/A,,Clear,200,2013-12-27 23:53:00
7:53 PM,37.9,28.9,70,30.27,10.0,SW,9.2,-,N/A,,Clear,220,2013-12-28 00:53:00
8:53 PM,37.9,28.9,70,30.26,10.0,SSW,10.4,-,N/A,,Clear,210,2013-12-28 01:53:00
9:53 PM,39.0,28.9,67,30.26,10.0,SW,15.0,-,N/A,,Clear,220,2013-12-28 02:53:00
10:53 PM,37.9,28.9,70,30.25,10.0,SW,12.7,-,N/A,,Clear,220,2013-12-28 03:53:00
11:53 PM,37.9,30.0,73,30.22,10.0,SW,12.7,-,N/A,,Clear,220,2013-12-28 04:53:00